Time,TemperatureF,DewpointF,PressureIn,WindDirection,WindDirectionDegrees,WindSpeedMPH,WindSpeedGustMPH,Humidity,HourlyPrecipIn,Conditions,Clouds,dailyrainin,SoftwareType,DateUTC
2013-03-07 00:02:00,28.0,21.0,30.12,NE,39,6.0,-999.0,75,-99.99,,,-99.99,,2013-03-07 05:02:00,
2013-03-07 00:12:00,28.0,21.0,30.12,NE,39,6.0,-999.0,75,-99.99,,,-99.99,,2013-03-07 05:12:00,
2013-03-07 00:22:00,28.0,21.0,30.12,ENE,71,7.0,-999.0,75,-99.99,,,-99.99,,2013-03-07 05:22:00,
2013-03-07 00:32:00,28.0,21.0,30.12,NNW,348,6.0,-999.0,76,-99.99,,,-99.99,,2013-03-07 05:32:00,
2013-03-07 00:42:00,28.0,21.0,30.12,NNW,348,6.0,-999.0,76,-99.99,,,-99.99,,2013-03-07 05:42:00,
2013-03-07 00:52:00,28.0,21.0,30.12,ENE,74,6.0,-999.0,75,-99.99,,,-99.99,,2013-03-07 05:52:00,
2013-03-07 01:01:00,28.0,21.0,30.11,NNE,27,5.0,-999.0,76,-99.99,,,-99.99,,2013-03-07 06:01:00,
2013-03-07 01:11:00,28.0,21.0,30.11,NNE,27,5.0,-999.0,76,-99.99,,,-99.99,,2013-03-07 06:11:00,
2013-03-07 01:21:00,28.0,21.0,30.11,NE,44,5.0,-999.0,76,-99.99,,,-99.99,,2013-03-07 06:21:00,
2013-03-07 01:32:00,28.0,21.0,30.12,North,355,5.0,-999.0,76,-99.99,,,-99.99,,2013-03-07 06:32:00,
2013-03-07 01:42:00,28.0,21.0,30.12,North,355,5.0,-999.0,76,-99.99,,,-99.99,,2013-03-07 06:42:00,
2013-03-07 01:52:00,28.0,21.0,30.12,NE,37,5.0,-999.0,76,-99.99,,,-99.99,,2013-03-07 06:52:00,
2013-03-07 02:01:00,28.0,21.0,30.12,NNW,330,4.0,-999.0,76,-99.99,,,-99.99,,2013-03-07 07:01:00,
2013-03-07 02:11:00,28.0,21.0,30.12,NNW,330,4.0,-999.0,76,-99.99,,,-99.99,,2013-03-07 07:11:00,
2013-03-07 02:21:00,28.0,21.0,30.12,North,350,5.0,-999.0,76,-99.99,,,-99.99,,2013-03-07 07:21:00,
2013-03-07 02:32:00,28.0,21.0,30.12,ENE,61,5.0,-999.0,76,-99.99,,,-99.99,,2013-03-07 07:32:00,
2013-03-07 02:43:00,28.0,21.0,30.12,ENE,61,5.0,-999.0,76,-99.99,,,-99.99,,2013-03-07 07:43:00,
2013-03-07 02:52:00,28.0,22.0,30.12,North,9,5.0,-999.0,77,-99.99,,,-99.99,,2013-03-07 07:52:00,
2013-03-07 03:03:00,28.0,22.0,30.12,NE,55,6.0,-999.0,77,-99.99,,,-99.99,,2013-03-07 08:03:00,
2013-03-07 03:12:00,28.0,22.0,30.12,NE,55,6.0,-999.0,77,-99.99,,,-99.99,,2013-03-07 08:12:00,
2013-03-07 03:23:00,27.0,21.0,30.12,ENE,69,5.0,-999.0,78,-99.99,,,-99.99,,2013-03-07 08:23:00,
2013-03-07 03:33:00,27.0,21.0,30.12,ENE,61,5.0,-999.0,78,-99.99,,,-99.99,,2013-03-07 08:33:00,
2013-03-07 03:44:00,27.0,21.0,30.12,ENE,61,5.0,-999.0,78,-99.99,,,-99.99,,2013-03-07 08:44:00,
2013-03-07 03:54:00,27.0,21.0,30.12,NNE,17,4.0,-999.0,78,-99.99,,,-99.99,,2013-03-07 08:54:00,
2013-03-07 04:03:00,27.0,21.0,30.12,NE,46,5.0,-999.0,78,-99.99,,,-99.99,,2013-03-07 09:03:00,
2013-03-07 04:13:00,27.0,21.0,30.12,NE,46,5.0,-999.0,78,-99.99,,,-99.99,,2013-03-07 09:13:00,
2013-03-07 04:23:00,27.0,21.0,30.12,ENE,58,5.0,-999.0,78,-99.99,,,-99.99,,2013-03-07 09:23:00,
2013-03-07 04:33:00,27.0,21.0,30.12,NE,35,6.0,-999.0,77,-99.99,,,-99.99,,2013-03-07 09:33:00,
2013-03-07 04:43:00,27.0,21.0,30.12,NE,35,6.0,-999.0,77,-99.99,,,-99.99,,2013-03-07 09:43:00,
2013-03-07 04:52:00,27.0,21.0,30.12,ENE,57,4.0,-999.0,77,-99.99,,,-99.99,,2013-03-07 09:52:00,
2013-03-07 05:03:00,27.0,21.0,30.12,NE,52,5.0,-999.0,77,-99.99,,,-99.99,,2013-03-07 10:03:00,
2013-03-07 05:13:00,27.0,21.0,30.12,NE,52,5.0,-999.0,77,-99.99,,,-99.99,,2013-03-07 10:13:00,
2013-03-07 05:23:00,27.0,21.0,30.13,NNE,32,5.0,-999.0,77,-99.99,,,-99.99,,2013-03-07 10:23:00,
2013-03-07 05:33:00,27.0,20.0,30.12,North,5,6.0,-999.0,76,-99.99,,,-99.99,,2013-03-07 10:33:00,
2013-03-07 05:43:00,27.0,20.0,30.12,North,5,6.0,-999.0,76,-99.99,,,-99.99,,2013-03-07 10:43:00,
2013-03-07 06:03:00,27.0,20.0,30.13,NE,51,5.0,-999.0,76,-99.99,,,-99.99,,2013-03-07 11:03:00,
2013-03-07 06:12:00,27.0,20.0,30.13,NE,51,5.0,-999.0,76,-99.99,,,-99.99,,2013-03-07 11:12:00,
2013-03-07 06:23:00,27.0,20.0,30.14,North,355,5.0,-999.0,76,-99.99,,,-99.99,,2013-03-07 11:23:00,
2013-03-07 06:33:00,27.0,20.0,30.14,NNE,17,8.0,-999.0,75,-99.99,,,-99.99,,2013-03-07 11:33:00,
2013-03-07 06:43:00,27.0,20.0,30.14,NNE,17,8.0,-999.0,75,-99.99,,,-99.99,,2013-03-07 11:43:00,
2013-03-07 06:53:00,27.0,20.0,30.14,ENE,78,6.0,-999.0,75,-99.99,,,-99.99,,2013-03-07 11:53:00,
2013-03-07 07:03:00,27.0,20.0,30.14,NE,46,8.0,-999.0,74,-99.99,,,-99.99,,2013-03-07 12:03:00,
2013-03-07 07:12:00,27.0,20.0,30.14,NE,46,8.0,-999.0,74,-99.99,,,-99.99,,2013-03-07 12:12:00,
2013-03-07 07:23:00,27.0,20.0,30.14,NE,56,6.0,-999.0,74,-99.99,,,-99.99,,2013-03-07 12:23:00,
2013-03-07 07:33:00,27.0,20.0,30.14,NNE,19,7.0,-999.0,73,-99.99,,,-99.99,,2013-03-07 12:33:00,
2013-03-07 07:43:00,27.0,20.0,30.14,NNE,19,7.0,-999.0,73,-99.99,,,-99.99,,2013-03-07 12:43:00,
2013-03-07 07:52:00,27.0,20.0,30.14,North,355,5.0,-999.0,73,-99.99,,,-99.99,,2013-03-07 12:52:00,
2013-03-07 08:03:00,27.0,20.0,30.15,North,5,6.0,-999.0,73,-99.99,,,-99.99,,2013-03-07 13:03:00,
2013-03-07 08:12:00,27.0,20.0,30.15,North,5,6.0,-999.0,73,-99.99,,,-99.99,,2013-03-07 13:12:00,
2013-03-07 08:22:00,27.0,19.0,30.16,NNW,348,6.0,-999.0,72,-99.99,,,-99.99,,2013-03-07 13:22:00,
2013-03-07 08:32:00,27.0,19.0,30.16,NNE,24,5.0,-999.0,72,-99.99,,,-99.99,,2013-03-07 13:32:00,
2013-03-07 08:42:00,27.0,19.0,30.16,NNE,24,5.0,-999.0,72,-99.99,,,-99.99,,2013-03-07 13:42:00,
2013-03-07 08:52:00,28.0,20.0,30.16,ENE,69,5.0,-999.0,72,-99.99,,,-99.99,,2013-03-07 13:52:00,
2013-03-07 09:02:00,28.0,20.0,30.15,NNE,14,7.0,-999.0,71,-99.99,,,-99.99,,2013-03-07 14:02:00,
2013-03-07 09:12:00,28.0,20.0,30.15,NNE,14,7.0,-999.0,71,-99.99,,,-99.99,,2013-03-07 14:12:00,
2013-03-07 09:23:00,28.0,20.0,30.16,NE,36,7.0,-999.0,71,-99.99,,,-99.99,,2013-03-07 14:23:00,
2013-03-07 09:33:00,28.0,20.0,30.16,NE,40,5.0,-999.0,70,-99.99,,,-99.99,,2013-03-07 14:33:00,
2013-03-07 09:42:00,28.0,20.0,30.16,NE,40,5.0,-999.0,70,-99.99,,,-99.99,,2013-03-07 14:42:00,
2013-03-07 09:53:00,29.0,20.0,30.16,NE,49,6.0,-999.0,69,-99.99,,,-99.99,,2013-03-07 14:53:00,
2013-03-07 10:03:00,29.0,20.0,30.16,NNE,33,6.0,-999.0,69,-99.99,,,-99.99,,2013-03-07 15:03:00,
2013-03-07 10:12:00,29.0,20.0,30.16,NNE,33,6.0,-999.0,69,-99.99,,,-99.99,,2013-03-07 15:12:00,
2013-03-07 10:23:00,29.0,20.0,30.17,NE,49,5.0,-999.0,68,-99.99,,,-99.99,,2013-03-07 15:23:00,
2013-03-07 10:32:00,29.0,20.0,30.16,NNE,17,6.0,-999.0,68,-99.99,,,-99.99,,2013-03-07 15:32:00,
2013-03-07 10:42:00,29.0,20.0,30.16,NNE,17,6.0,-999.0,68,-99.99,,,-99.99,,2013-03-07 15:42:00,
2013-03-07 10:52:00,29.0,20.0,30.16,NNE,32,5.0,-999.0,68,-99.99,,,-99.99,,2013-03-07 15:52:00,
2013-03-07 11:02:00,29.0,20.0,30.16,ENE,77,5.0,-999.0,68,-99.99,,,-99.99,,2013-03-07 16:02:00,
2013-03-07 11:13:00,29.0,20.0,30.16,ENE,77,5.0,-999.0,68,-99.99,,,-99.99,,2013-03-07 16:13:00,
2013-03-07 11:23:00,30.0,21.0,30.16,NNE,28,5.0,-999.0,68,-99.99,,,-99.99,,2013-03-07 16:23:00,
2013-03-07 11:33:00,30.0,21.0,30.17,NNE,14,5.0,-999.0,69,-99.99,,,-99.99,,2013-03-07 16:33:00,
2013-03-07 11:43:00,30.0,21.0,30.17,NNE,14,5.0,-999.0,69,-99.99,,,-99.99,,2013-03-07 16:43:00,
2013-03-07 11:52:00,30.0,22.0,30.17,NNW,329,5.0,-999.0,72,-99.99,,,-99.99,,2013-03-07 16:52:00,
2013-03-07 12:02:00,29.0,21.0,30.17,NNW,331,5.0,-999.0,73,-99.99,,,-99.99,,2013-03-07 17:02:00,
2013-03-07 12:12:00,29.0,21.0,30.17,NNW,331,5.0,-999.0,73,-99.99,,,-99.99,,2013-03-07 17:12:00,
2013-03-07 12:22:00,30.0,23.0,30.16,NNW,334,4.0,-999.0,75,-99.99,,,-99.99,,2013-03-07 17:22:00,
2013-03-07 12:33:00,30.0,23.0,30.16,North,5,4.0,-999.0,74,-99.99,,,-99.99,,2013-03-07 17:33:00,
2013-03-07 12:43:00,30.0,23.0,30.16,North,5,4.0,-999.0,74,-99.99,,,-99.99,,2013-03-07 17:43:00,
2013-03-07 12:53:00,30.0,23.0,30.16,NNE,30,5.0,-999.0,76,-99.99,,,-99.99,,2013-03-07 17:53:00,
2013-03-07 13:04:00,29.0,23.0,30.16,North,350,4.0,-999.0,79,-99.99,,,-99.99,,2013-03-07 18:04:00,
2013-03-07 13:13:00,29.0,23.0,30.16,North,350,4.0,-999.0,79,-99.99,,,-99.99,,2013-03-07 18:13:00,
2013-03-07 13:22:00,30.0,25.0,30.15,NNW,344,3.0,-999.0,81,-99.99,,,-99.99,,2013-03-07 18:22:00,
2013-03-07 13:32:00,29.0,24.0,30.15,NNE,22,4.0,-999.0,82,-99.99,,,-99.99,,2013-03-07 18:32:00,
2013-03-07 13:42:00,29.0,24.0,30.15,NNE,22,4.0,-999.0,82,-99.99,,,-99.99,,2013-03-07 18:42:00,
2013-03-07 13:52:00,29.0,25.0,30.15,NNE,22,4.0,-999.0,83,-99.99,,,-99.99,,2013-03-07 18:52:00,
2013-03-07 14:03:00,29.0,25.0,30.15,NNE,16,4.0,-999.0,85,-99.99,,,-99.99,,2013-03-07 19:03:00,
2013-03-07 14:12:00,29.0,25.0,30.15,NNE,16,4.0,-999.0,85,-99.99,,,-99.99,,2013-03-07 19:12:00,
2013-03-07 14:23:00,29.0,26.0,30.15,NNE,15,2.0,-999.0,87,-99.99,,,-99.99,,2013-03-07 19:23:00,
2013-03-07 14:35:00,29.0,26.0,30.16,NNW,341,2.0,-999.0,87,-99.99,,,-99.99,,2013-03-07 19:35:00,
2013-03-07 14:43:00,29.0,26.0,30.16,NNW,341,2.0,-999.0,87,-99.99,,,-99.99,,2013-03-07 19:43:00,
2013-03-07 14:52:00,29.0,26.0,30.16,WSW,237,2.0,-999.0,87,-99.99,,,-99.99,,2013-03-07 19:52:00,
2013-03-07 15:02:00,29.0,26.0,30.16,WNW,299,3.0,-999.0,87,-99.99,,,-99.99,,2013-03-07 20:02:00,
2013-03-07 15:13:00,29.0,26.0,30.16,WNW,299,3.0,-999.0,87,-99.99,,,-99.99,,2013-03-07 20:13:00,
2013-03-07 15:22:00,29.0,26.0,30.17,NW,321,3.0,-999.0,87,-99.99,,,-99.99,,2013-03-07 20:22:00,
2013-03-07 15:33:00,29.0,26.0,30.17,North,355,3.0,-999.0,87,-99.99,,,-99.99,,2013-03-07 20:33:00,
2013-03-07 15:43:00,29.0,26.0,30.17,North,355,3.0,-999.0,87,-99.99,,,-99.99,,2013-03-07 20:43:00,
2013-03-07 15:53:00,29.0,26.0,30.17,NE,53,1.0,-999.0,88,-99.99,,,-99.99,,2013-03-07 20:53:00,
2013-03-07 16:03:00,30.0,27.0,30.17,North,5,3.0,-999.0,88,-99.99,,,-99.99,,2013-03-07 21:03:00,
2013-03-07 16:12:00,30.0,27.0,30.17,North,5,3.0,-999.0,88,-99.99,,,-99.99,,2013-03-07 21:12:00,
2013-03-07 16:22:00,29.0,26.0,30.18,North,360,2.0,-999.0,87,-99.99,,,-99.99,,2013-03-07 21:22:00,
2013-03-07 16:33:00,29.0,26.0,30.18,ENE,59,3.0,-999.0,88,-99.99,,,-99.99,,2013-03-07 21:33:00,
2013-03-07 16:43:00,29.0,26.0,30.18,ENE,59,3.0,-999.0,88,-99.99,,,-99.99,,2013-03-07 21:43:00,
2013-03-07 16:52:00,29.0,26.0,30.18,NNW,336,2.0,-999.0,88,-99.99,,,-99.99,,2013-03-07 21:52:00,
2013-03-07 17:02:00,29.0,26.0,30.18,NNW,336,2.0,-999.0,88,-99.99,,,-99.99,,2013-03-07 22:02:00,
2013-03-07 17:12:00,29.0,26.0,30.18,NNW,336,2.0,-999.0,88,-99.99,,,-99.99,,2013-03-07 22:12:00,
2013-03-07 17:22:00,29.0,26.0,30.18,North,350,2.0,-999.0,88,-99.99,,,-99.99,,2013-03-07 22:22:00,
2013-03-07 17:33:00,29.0,26.0,30.19,NNW,344,2.0,-999.0,88,-99.99,,,-99.99,,2013-03-07 22:33:00,
2013-03-07 17:43:00,29.0,26.0,30.19,NNW,344,2.0,-999.0,88,-99.99,,,-99.99,,2013-03-07 22:43:00,
2013-03-07 17:54:00,28.0,25.0,30.19,NNE,27,1.0,-999.0,88,-99.99,,,-99.99,,2013-03-07 22:54:00,
2013-03-07 18:03:00,28.0,25.0,30.20,West,269,0.0,-999.0,89,-99.99,,,-99.99,,2013-03-07 23:03:00,
2013-03-07 18:13:00,28.0,25.0,30.20,West,269,0.0,-999.0,89,-99.99,,,-99.99,,2013-03-07 23:13:00,
2013-03-07 18:22:00,28.0,25.0,30.20,North,355,2.0,-999.0,89,-99.99,,,-99.99,,2013-03-07 23:22:00,
2013-03-07 18:34:00,28.0,25.0,30.20,SW,225,1.0,-999.0,89,-99.99,,,-99.99,,2013-03-07 23:34:00,
2013-03-07 18:43:00,28.0,25.0,30.20,SW,225,1.0,-999.0,89,-99.99,,,-99.99,,2013-03-07 23:43:00,
2013-03-07 18:53:00,28.0,25.0,30.20,NE,44,1.0,-999.0,89,-99.99,,,-99.99,,2013-03-07 23:53:00,
2013-03-07 19:04:00,27.0,24.0,30.21,WNW,301,2.0,-999.0,89,-99.99,,,-99.99,,2013-03-08 00:04:00,
2013-03-07 19:13:00,27.0,24.0,30.21,WNW,301,2.0,-999.0,89,-99.99,,,-99.99,,2013-03-08 00:13:00,
2013-03-07 19:23:00,27.0,24.0,30.21,NNW,331,1.0,-999.0,89,-99.99,,,-99.99,,2013-03-08 00:23:00,
2013-03-07 19:34:00,27.0,24.0,30.21,NNW,336,2.0,-999.0,90,-99.99,,,-99.99,,2013-03-08 00:34:00,
2013-03-07 19:44:00,27.0,24.0,30.21,NNW,336,2.0,-999.0,90,-99.99,,,-99.99,,2013-03-08 00:44:00,
2013-03-07 19:52:00,27.0,24.0,30.20,North,5,1.0,-999.0,90,-99.99,,,-99.99,,2013-03-08 00:52:00,
2013-03-07 20:02:00,27.0,24.0,30.20,NNE,26,2.0,-999.0,90,-99.99,,,-99.99,,2013-03-08 01:02:00,
2013-03-07 20:11:00,27.0,24.0,30.20,NNE,26,2.0,-999.0,90,-99.99,,,-99.99,,2013-03-08 01:11:00,
2013-03-07 20:21:00,27.0,24.0,30.20,NNE,26,2.0,-999.0,90,-99.99,,,-99.99,,2013-03-08 01:21:00,
2013-03-07 20:33:00,27.0,24.0,30.20,NNW,345,1.0,-999.0,90,-99.99,,,-99.99,,2013-03-08 01:33:00,
2013-03-07 20:42:00,27.0,24.0,30.20,NNW,345,1.0,-999.0,90,-99.99,,,-99.99,,2013-03-08 01:42:00,
2013-03-07 20:52:00,27.0,24.0,30.19,NNW,345,0.0,-999.0,90,-99.99,,,-99.99,,2013-03-08 01:52:00,
2013-03-07 21:02:00,27.0,24.0,30.19,NNE,18,1.0,-999.0,90,-99.99,,,-99.99,,2013-03-08 02:02:00,
2013-03-07 21:12:00,27.0,24.0,30.19,North,355,1.0,-999.0,90,-99.99,,,-99.99,,2013-03-08 02:12:00,
2013-03-07 21:22:00,27.0,24.0,30.19,North,355,1.0,-999.0,90,-99.99,,,-99.99,,2013-03-08 02:22:00,
2013-03-07 21:32:00,27.0,24.0,30.19,NW,320,1.0,-999.0,90,-99.99,,,-99.99,,2013-03-08 02:32:00,
2013-03-07 21:42:00,27.0,24.0,30.19,NW,320,1.0,-999.0,90,-99.99,,,-99.99,,2013-03-08 02:42:00,
2013-03-07 21:52:00,26.0,23.0,30.18,NW,320,0.0,-999.0,90,-99.99,,,-99.99,,2013-03-08 02:52:00,
2013-03-07 22:02:00,26.0,23.0,30.17,NW,320,0.0,-999.0,90,-99.99,,,-99.99,,2013-03-08 03:02:00,
2013-03-07 22:12:00,26.0,23.0,30.17,NW,320,0.0,-999.0,90,-99.99,,,-99.99,,2013-03-08 03:12:00,
2013-03-07 22:22:00,26.0,23.0,30.17,NNE,21,1.0,-999.0,90,-99.99,,,-99.99,,2013-03-08 03:22:00,
2013-03-07 22:32:00,26.0,23.0,30.17,NNE,21,0.0,-999.0,90,-99.99,,,-99.99,,2013-03-08 03:32:00,
2013-03-07 22:43:00,26.0,23.0,30.17,NNE,21,0.0,-999.0,90,-99.99,,,-99.99,,2013-03-08 03:43:00,
2013-03-07 22:52:00,26.0,23.0,30.17,NW,325,1.0,-999.0,90,-99.99,,,-99.99,,2013-03-08 03:52:00,
2013-03-07 23:02:00,26.0,23.0,30.16,WNW,302,1.0,-999.0,90,-99.99,,,-99.99,,2013-03-08 04:02:00,
2013-03-07 23:11:00,26.0,23.0,30.16,WNW,302,1.0,-999.0,90,-99.99,,,-99.99,,2013-03-08 04:11:00,
2013-03-07 23:22:00,26.0,23.0,30.16,North,5,1.0,-999.0,90,-99.99,,,-99.99,,2013-03-08 04:22:00,
2013-03-07 23:32:00,26.0,23.0,30.16,NNW,332,1.0,-999.0,90,-99.99,,,-99.99,,2013-03-08 04:32:00,
2013-03-07 23:42:00,26.0,23.0,30.16,NNW,332,1.0,-999.0,90,-99.99,,,-99.99,,2013-03-08 04:42:00,
2013-03-07 23:52:00,26.0,23.0,30.16,NNW,343,1.0,-999.0,90,-99.99,,,-99.99,,2013-03-08 04:52:00,